Regional Weather Roundup
Issued by NWS

Home | Current Version | Previous Version | Graphics & Text | Print | Product List | Glossary On
Versions: 1 2 3 4 5 6 7 8 9 10 11 12 13 14 15 16 17 18 19 20 21 22 23 24 25 26 27 28 29 30 31 32 33 34 35 36 37 38 39 40 41 42 43 44 45 46 47 48 49 50
000
ASUS43 KDTX 201101
RWRMI
MICHIGAN HOURLY REGIONAL WEATHER ROUNDUP
NATIONAL WEATHER SERVICE DETROIT/PONTIAC MI
700 AM EDT SUN AUG 20 2017

NOTE: "FAIR" INDICATES FEW OR NO CLOUDS BELOW 12,000 FEET WITH NO
SIGNIFICANT WEATHER AND/OR OBSTRUCTION TO VISIBILITY.

MIZ047>049-052>055-059>063-066>070-074>076-081>083-201200-
SOUTHEAST LOWER MICHIGAN

CITY           SKY/WX    TMP DP  RH WIND       PRES   REMARKS
ADRIAN         CLEAR     56  54  93 NW3       30.08R
ALMA           FOG       53  53  97 CALM      30.06R VSB 1
ANN ARBOR      FOG       52  52 100 MISG      30.06R VSB 1/4
BAD AXE        CLEAR     58  56  95 S3        30.04S FOG
CARO           FOG       54  52  95 CALM      30.04R VSB<1/4
DETROIT CITY   CLEAR     62  58  86 CALM      30.05F
DETROIT        CLEAR     62  58  86 CALM      30.06S
FLINT          CLEAR     57  56  96 CALM      30.05R
GROSSE ILE     CLEAR     61  58  92 CALM      30.04S
HILLSDALE      CLEAR     55  54  94 CALM      30.07R
HOWELL         CLEAR     56  55  97 CALM      30.06R FOG

CITY           SKY/WX    TMP DP  RH WIND       PRES   REMARKS
JACKSON        FOG       55  54  96 CALM      30.06R VSB 1
LAMBERTVILLE   CLEAR     57  56  98 CALM      30.06R FOG
LANSING        CLEAR     58  55  90 CALM      30.07R
LAPEER         FAIR      54  53  98 CALM      30.05S FOG
MASON            N/A     55  54  94 CALM      30.07R FOG
MONROE         FOG       55  55  99 CALM      30.05S VSB 1/4
MT. CLEMENS    CLEAR     58  58 100 CALM      30.04S
PONTIAC        CLEAR     58  57  97 CALM      30.05R
PORT HOPE        N/A     64  60  87 SW7       30.00R
PORT HURON     FOG       55  54  94 CALM      30.05S VSB 3/4
TRI CITIES     CLEAR     60  59  96 S5        30.05R FOG
MIDLAND        FAIR      56  56 100 CALM      30.03R FOG
TROY           CLEAR     61  58  91 CALM      30.07S
SAGINAW HB     CLEAR     57  55  94 CALM      30.03R FOG
$$
MIZ043>046-050>051-056>058-064>065-071>073-077>080-201200-
SOUTHWEST LOWER MICHIGAN

CITY           SKY/WX    TMP DP  RH WIND       PRES   REMARKS
BATTLE CREEK   CLEAR     55  54  96 CALM      30.07R
BENTON HARBOR  CLEAR     57  54  89 CALM      30.05R
BIG RAPIDS     FOG       55  54  95 CALM      30.04R VSB 1/2
COLDWATER      CLEAR     55  55 100 CALM      30.07R FOG
FREMONT        FOG       57  57 100 CALM      30.04R VSB 1/4
HOLLAND        CLEAR     59  55  87 CALM      30.05R
GRAND RAPIDS   PTCLDY    59  57  93 CALM      30.05R
IONIA          FAIR      56  55  96 CALM      30.05R
KALAMAZOO      CLEAR     56  53  90 CALM      30.06R
LUDINGTON      CLEAR     65  62  90 CALM      30.01S
MARSHALL       FOG       52  52  98 CALM      30.06R VSB 3/4
MOUNT PLEASANT FOG       59  57  93 CALM      30.04R VSB 3/4
MUSKEGON       PTCLDY    60  58  92 CALM      30.03R
SOUTH HAVEN    CLEAR     59  56  91 CALM      30.05R
$$
MIZ016>042-201200-
NORTHERN LOWER MICHIGAN

CITY           SKY/WX    TMP DP  RH WIND       PRES   REMARKS
ALPENA         CLEAR     58  57  97 CALM      29.99R
BEAVER ISLAND  PTCLDY    64  64 100 SW5       29.97R
BELLAIRE         N/A     58  56  95 CALM      30.00R FOG
CADILLAC       FOG       59  56  91 CALM      30.04R VSB 1/4
CHARLEVOIX     CLEAR     63  63 100 CALM      30.01R FOG
FRANKFORT      CLEAR     66  66 100 CALM      30.01R
GAYLORD        CLEAR     60  58  92 SW5       30.01R
GRAYLING       CLEAR     60  57  91 W5        30.02R
HARBOR SPRINGS CLEAR     62  61  95 SW3       29.98R
HOUGHTON LAKE  CLEAR     62  59  90 SW5       30.04R
MANISTEE       CLEAR     56  55  97 E3        30.01R
OSCODA         CLEAR     62  59  92 SW7       29.99R
PELLSTON       CLEAR     58  57  97 CALM      29.97R FOG
ROGERS CITY    CLEAR     62  60  93 SW3       29.99R
TRAVERSE CITY  PTCLDY    64  61  90 CALM      29.98R
$$
MIZ007>008-015-201200-
EASTERN UPPER MICHIGAN

CITY           SKY/WX    TMP DP  RH WIND       PRES   REMARKS
KINROSS        FOG       60  60 100 SE3       29.96R VSB 1/4
MACKINAC ISLAN CLEAR     63  63 100 SW6       29.96R
NEWBERRY       FOG       57  56  97 CALM      29.95R VSB<1/4
S. S. MARIE    FOG       55  54  96 CALM      29.95S VSB 1/4
MUNISING         N/A     61  60  97 S7        29.93R
$$
MIZ004>006-011>014-085-201200-
CENTRAL UPPER MICHIGAN

CITY           SKY/WX    TMP DP  RH WIND       PRES   REMARKS
MANISTIQUE       N/A     52  47  82 CALM      29.95R HAZE
ESCANABA       FOG       56  55  97 CALM      29.96R VSB 1/4
MENOMINEE      CLEAR     61  59  93 SW6       29.98R
SAWYER-GWINN   CLEAR     54  52  94 S3        29.96R
$$
MIZ001>003-009>011-084-201200-
WESTERN UPPER MICHIGAN

CITY           SKY/WX    TMP DP  RH WIND       PRES   REMARKS
IRON MOUNTAIN  CLEAR     54  51  90 CALM      29.96S FOG
HOUGHTON         N/A    N/A N/A N/A MISG      29.90R
COPPER HARBOR    N/A     63  58  83 SW7       29.87R
IRONWOOD       CLEAR     63  59  87 S8        29.92S
$$

ABBREVIATIONS USED IN REMARKS
   TC - TEMPERATURE IN CELSIUS
  WCI - WIND CHILL INDEX
   HX - HEAT INDEX
  VSB - VISIBILITY





USA.gov is the U.S. government's official web portal to all federal, state and local government web resources and services.